Location: Plum
(40.5000°N, 79.7500°W)
Time: 06:13:22
(UTC-04:00)

Daily predictions for brighter satellites

Satellite Brightness Start Highest point End
(mag) Time Altitude Azimuth Time Altitude Azimuth Time Altitude Azimuth
METEOR-M 4.2 20:17:04 10° SSE 20:22:25 88° WSW 20:27:49 10° NNW
Cosmos 2369 4.1 20:20:27 10° S 20:25:44 42° ESE 20:31:04 10° NE
Lacrosse 5 rocket 2.3 20:22:47 10° NNW 20:26:07 29° NE 20:29:20 10° E
Cosmos 1777 Rocket 4.0 20:21:03 10° NNW 20:26:20 81° ENE 20:31:36 10° SSE
Cosmos 1633 3.1 20:22:49 10° SSW 20:26:27 66° W 20:30:05 10° N
Cosmos 1315 Rocket 3.6 20:23:59 10° SSW 20:27:56 58° WNW 20:31:57 10° N
H-2A R/B 3.4 20:24:31 10° SE 20:28:06 37° ENE 20:31:45 10° N
Meteor 2-21 Rocket 4.5 20:26:52 10° S 20:33:03 79° E 20:39:15 10° N
Helios 1A 3.7 20:30:05 10° S 20:34:11 58° W 20:38:20 10° NNW
Meteor 1-23 Rocket 4.3 20:28:52 10° N 20:34:32 90° ENE 20:40:15 10° S
NOSS 3-4 (A) 3.9 20:29:30 10° NNW 20:36:33 78° NE 20:44:02 10° SE
NOSS 3-4 (C) 3.9 20:29:37 10° NNW 20:36:41 78° NE 20:44:08 10° SE
CZ-4 DEB 4.5 20:38:27 11° ESE 20:40:25 17° ENE 20:42:32 10° NNE
Cosmos 2208 Rocket 4.0 20:39:22 10° SSW 20:44:38 78° ESE 20:50:03 10° NNE
Meteor 2-15 4.4 20:39:20 10° N 20:45:26 82° E 20:51:29 10° S
CZ-2D R/B 3.2 20:42:49 10° SSE 20:46:39 71° ENE 20:50:33 10° N
Cosmos 1025 Rocket 4.3 20:44:07 10° NNW 20:48:16 44° W 20:52:21 10° SSW
H-2A R/B 3.9 20:46:30 11° E 20:48:20 13° ENE 20:50:22 10° NNE
Cosmos 1461 2.8 20:44:37 10° NNW 20:48:41 66° ENE 20:52:18 12° SE
OAO 2 Rocket 4.0 20:45:30 10° SW 20:50:07 38° SSE 20:54:03 14° ESE
Hubble Space Telescope 3.2 20:49:48 10° SSW 20:50:49 11° SSW 20:51:51 10° S
Meteor 2-15 Rocket 4.4 20:45:04 10° N 20:51:10 77° E 20:57:13 10° SSE
Cosmos 1892 Rocket 4.0 20:46:47 10° NNW 20:51:14 69° W 20:55:40 10° S
Cosmos 2123 Rocket 3.9 20:45:10 10° N 20:51:22 74° E 20:57:31 10° SSE
Cosmos 1626 Rocket 4.0 20:47:25 10° N 20:51:36 40° ENE 20:55:42 10° SSE
Cosmos 1939 Rocket 4.3 20:50:49 14° ESE 20:53:19 23° ENE 20:56:38 10° NNE
FENGYUN 3A 3.7 20:50:08 10° SSE 20:55:29 89° WSW 21:00:52 10° NNW
Cosmos 1455 Rocket 3.0 20:51:11 10° S 20:55:30 87° W 20:59:52 10° N
Cosmos 2227 Rocket 2.2 20:52:46 10° NNW 20:58:27 80° ENE 21:04:06 10° SSE
Cosmos 1656 3.9 20:54:30 10° S 20:59:50 45° ESE 21:05:07 10° NE
Cosmos 1602 Rocket 3.8 20:56:07 10° N 21:00:28 50° E 21:04:39 11° SSE
Cosmos 1570 Rocket 4.4 20:55:14 10° SSW 21:00:31 70° WNW 21:05:48 10° NNE
Envisat 3.9 20:57:13 15° ESE 21:00:39 30° ENE 21:05:03 10° N
CZ-4B DEB 4.2 20:59:11 10° S 21:02:16 40° W 21:05:24 10° NNW
Cosmos 1346 Rocket 3.1 21:00:07 10° NNW 21:04:02 67° W 21:07:59 10° S
Cosmos 1500 3.9 21:02:27 13° SSE 21:05:21 32° E 21:08:45 10° NNE
NOSS 7 (H) 4.3 21:03:33 10° SSW 21:06:53 90° SSW 21:10:19 10° NE
Iridium 4 Rocket 3.4 21:04:50 10° N 21:09:52 56° E 21:14:17 11° SSE
ALOS 2.9 21:05:51 10° S 21:10:26 57° W 21:15:04 10° NNW
Cosmos 2082 3.7 21:07:03 10° NNW 21:12:42 85° WSW 21:18:05 11° SSE
Cosmos 2084 4.1 21:08:58 10° NNW 21:12:47 38° NE 21:14:49 23° ESE
Cosmos 2297 Rocket 2.2 21:08:16 10° NNW 21:13:57 77° ENE 21:18:32 16° SSE
Cosmos 220 Rocket 3.8 21:13:57 10° NNW 21:18:11 72° ENE 21:20:50 22° SSE
Cosmos 1340 4.3 21:15:38 10° NNE 21:18:21 18° ENE 21:18:25 18° ENE
Cosmos 2150 Rocket 4.3 21:13:43 10° N 21:18:41 47° ENE 21:21:30 24° SE
Resurs 01 Rocket 4.3 21:16:36 10° SW 21:19:48 20° W 21:23:03 10° NW
Cosmos 1153 Rocket 4.4 21:13:39 10° S 21:19:49 74° E 21:25:58 10° N
RESURS DK-1 3.5 21:16:36 10° N 21:20:10 27° ENE 21:21:23 24° E
CZ-3C R/B 4.2 20:33:23 10° WSW 21:20:18 33° SSW 21:27:54 14° SSE
USA 186 3.2 21:22:23 10° SSW 21:25:26 36° W 21:28:17 10° NNW
YAOGAN 6 4.3 21:26:58 19° ENE 21:26:58 19° ENE 21:29:29 10° NNE
DELTA 2 R/B (1) 3.6 21:22:36 10° W 21:28:08 69° SSW 21:31:02 29° ESE
BREEZE-M DEB (TANK) 4.1 21:10:19 10° SW 21:28:24 72° SSE 21:32:42 14° ENE
Cosmos 1515 3.6 21:24:54 10° N 21:28:46 77° E 21:30:46 27° SSE
Cosmos 1447 Rocket 4.5 21:25:03 10° N 21:31:23 87° E 21:37:43 10° S
ERS-1 Rocket 2.9 21:27:56 19° SSE 21:31:32 77° ENE 21:36:34 10° N
Cosmos 1606 Rocket 4.3 21:34:01 31° E 21:34:04 31° E 21:37:59 10° NNE
Cosmos 1802 Rocket 4.3 21:29:34 17° SSE 21:34:20 48° E 21:40:27 10° NNE
Cosmos 1743 2.9 21:40:00 46° ESE 21:40:21 48° E 21:44:09 10° NNE
Cosmos 1898 Rocket 3.4 21:35:30 10° NNW 21:40:50 80° ENE 21:43:26 31° SSE
OTV 4 2.2 21:39:03 10° WSW 21:41:08 23° SSW 21:41:08 23° SSW
Cosmos 1763 Rocket 3.9 21:43:23 37° ESE 21:43:46 37° ESE 21:48:25 10° NE
Lacrosse 5 2.1 21:41:31 10° NW 21:46:31 56° NE 21:48:07 39° E
Cosmos 1066 Rocket 4.2 21:41:30 10° N 21:47:12 88° E 21:50:49 24° S
Tiangong 1 1.3 21:44:51 10° WNW 21:47:55 58° N 21:47:55 58° N
Cosmos 2016 Rocket 4.1 21:47:11 30° SSE 21:50:01 52° E 21:55:59 10° NNE
Cosmos 1697 Rocket 2.6 21:45:17 10° SSW 21:50:57 89° ESE 21:56:38 10° NNE
SPOT 5 3.0 21:50:57 43° SE 21:52:19 58° ENE 21:57:05 10° N
Cosmos 1975 4.5 21:51:15 10° SW 21:55:01 35° WNW 21:58:49 10° N
SL-16 R/B 4.2 22:00:59 13° ENE 22:00:59 13° ENE 22:01:53 10° NE
Cosmos 468 Rocket 4.1 21:52:39 10° SSW 21:57:46 75° WNW 22:02:55 10° NNE
Cosmos 1726 Rocket 3.9 21:58:23 46° ENE 21:58:23 46° ENE 22:02:08 10° NNE
Cosmos 2173 Rocket 4.0 21:56:19 10° S 22:02:36 90° W 22:08:58 10° N
USA 215 4.2 22:00:24 22° ENE 22:03:48 37° NNE 22:09:40 10° NW
Cosmos 841 Rocket 3.5 22:05:13 53° ESE 22:05:17 53° ESE 22:10:22 10° NNE
Lacrosse 5 rocket 2.4 22:02:04 10° WNW 22:05:17 29° SW 22:05:31 28° SW
Cosmos 1842 4.5 22:01:51 10° N 22:04:21 30° NE 22:04:21 30° NE
Cosmos 1814 Rocket 4.2 22:01:45 10° SSW 22:07:06 74° WNW 22:12:25 10° NNE
Cosmos 1825 Rocket 3.5 22:07:33 10° N 22:12:00 81° W 22:12:29 69° SSW
ARGOS 3.4 22:12:12 48° E 22:12:34 49° ENE 22:17:45 10° N
Cosmos 1980 Rocket 2.1 22:07:51 10° SSW 22:13:30 83° ESE 22:19:14 10° NNE
Cosmos 2100 Rocket 4.3 22:08:26 10° SSW 22:14:41 67° W 22:20:54 10° N
Cosmos 1864 Rocket 4.5 22:17:10 54° ESE 22:17:51 57° E 22:23:48 10° NNE
Cosmos 967 Rocket 4.5 22:12:18 10° NNW 22:18:40 69° ENE 22:19:56 55° ESE
Cosmos 2061 Rocket 4.2 22:12:27 10° SSW 22:18:41 69° W 22:24:56 10° N
Cosmos 1953 Rocket 3.5 22:17:09 10° N 22:21:30 84° NW 22:21:30 84° NW
USA 245 4.4 22:21:02 56° SE 22:22:19 74° ENE 22:28:41 10° N
Tsikada Rocket 4.1 22:16:18 10° N 22:22:39 59° E 22:23:28 55° ESE
H-2A R/B 2.5 22:23:39 50° WSW 22:23:54 51° W 22:27:56 10° NNW
Meteor 1-15 Rocket 4.3 22:24:50 60° E 22:24:53 60° E 22:30:40 10° NNE
Terra 3.4 22:28:05 23° NE 22:28:05 23° NE 22:30:47 10° NNE
MetOp-B 4.2 22:28:30 60° SSW 22:29:25 75° WSW 22:34:47 10° NNW
Cosmos 1666 4.4 22:31:54 27° N 22:31:54 27° N 22:33:45 10° N
Milstar 3 Cent rocket 4.2 22:12:59 10° W 22:30:54 45° SSW 22:34:14 37° SSE
OAO 2 Rocket 4.3 22:29:41 10° WSW 22:33:01 35° SW 22:33:01 35° SW
ASTEX 1 3.8 22:33:35 10° N 22:38:32 61° W 22:39:19 53° WSW
Envisat 4.5 22:37:26 23° SW 22:39:35 31° W 22:44:05 10° NW
Cosmos 1758 Rocket 4.1 22:36:14 10° NNW 22:39:54 54° NW 22:39:54 54° NW
Cosmos 2263 Rocket 3.4 22:37:31 10° N 22:41:51 29° NE 22:41:51 29° NE
Cosmos 2322 Rocket 3.3 22:48:05 32° NE 22:48:05 32° NE 22:51:09 10° NNE
Cosmos 1816 Rocket 4.4 22:40:22 10° N 22:46:45 72° E 22:46:49 72° E
H-2A R/B 2.8 22:48:51 41° NNE 22:48:51 41° NNE 22:52:22 10° N
Cosmos 1725 Rocket 3.9 22:47:52 64° SSW 22:48:52 81° W 22:55:09 10° N
Cosmos 2360 4.5 22:53:09 48° WSW 22:54:35 65° WNW 23:00:18 10° NNE
Meteor 2-9 Rocket 4.4 22:56:00 64° W 22:56:14 65° W 23:01:39 10° N
RESURS DK-1 4.4 22:54:44 10° NW 22:57:19 23° W 22:57:19 23° W
Cosmos 2098 Rocket 4.5 22:58:17 38° SW 23:00:50 59° W 23:06:45 10° N
Cosmos 2058 Rocket 4.4 23:03:28 39° NW 23:03:28 39° NW 23:07:04 10° N
CZ-4B R/B 4.2 22:58:31 10° N 23:02:03 47° NNW 23:02:03 47° NNW
Meteor 2-17 Rocket 4.5 23:04:12 70° NNE 23:04:12 70° NNE 23:09:33 10° N
SPOT 1/Viking Rocket 4.3 23:07:00 48° W 23:07:00 48° W 23:11:41 10° NNW
Cosmos 2233 Rocket 4.1 23:15:54 72° NNW 23:15:54 72° NNW 23:21:32 10° N
Lacrosse 5 4.0 23:25:08 10° WNW 23:27:19 20° W 23:27:19 20° W
SL-16 R/B 3.3 23:42:47 42° NNW 23:42:47 42° NNW 23:46:55 10° NNE
USA 215 3.6 23:47:44 60° WNW 23:47:44 60° WNW 23:53:00 10° NW
